Regional Weather Roundup
Issued by NWS

Home | Current Version | Previous Version | Text Only | Print | Product List | Glossary On
Versions: 1 2 3 4 5 6 7 8 9 10 11 12 13 14 15 16 17 18 19 20 21 22 23 24 25 26 27 28 29 30 31 32 33 34 35 36 37 38 39 40 41 42 43 44 45 46 47 48 49 50
000
ASUS43 KDTX 281810
RWRMI
MICHIGAN HOURLY REGIONAL WEATHER ROUNDUP
NATIONAL WEATHER SERVICE DETROIT/PONTIAC MI
200 PM EDT SAT MAY 28 2016

NOTE: "FAIR" INDICATES FEW OR NO CLOUDS BELOW 12,000 FEET WITH NO
SIGNIFICANT WEATHER AND/OR OBSTRUCTION TO VISIBILITY.

MIZ047>049-052>055-059>063-066>070-074>076-081>083-281900-
SOUTHEAST LOWER MICHIGAN

CITY           SKY/WX    TMP DP  RH WIND       PRES   REMARKS
ADRIAN         MOSUNNY   86  58  38 SW21G32   30.04F
6HR MIN TEMP:  71; 6HR MAX TEMP:  87; 6HR PCP: TRACE;

ALMA           MOSUNNY   79  67  66 S15       29.99F
ANN ARBOR      MOSUNNY   86  63  45 SW13G25   30.02F
BAD AXE        CLOUDY    82  65  56 S13G18    30.00F
CARO           CLOUDY    85  66  53 S15       30.00S
DETROIT CITY   SUNNY     86  67  52 S14       30.02F
6HR MIN TEMP:  72; 6HR MAX TEMP:  86;

DETROIT        PTSUNNY   79  69  71 SE12G25   30.03F
6HR MIN TEMP:  72; 6HR MAX TEMP:  87;

FLINT          CLOUDY    84  64  50 SW8       30.02S
6HR MIN TEMP:  77; 6HR MAX TEMP:  86; 6HR PCP: TRACE;

GROSSE ILE     SUNNY     81  68  65 SE10      30.03S
HILLSDALE      CLOUDY    81  57  43 SW14G22   30.05F
HOWELL         CLOUDY    83  62  48 SW17G24   30.02F

CITY           SKY/WX    TMP DP  RH WIND       PRES   REMARKS
JACKSON        CLOUDY    79  63  57 S13G22    30.03F
6HR MIN TEMP:  71; 6HR MAX TEMP:  80; 6HR PCP:  0.02;

LAMBERTVILLE   MOSUNNY   87  64  45 W8G16     30.03F
6HR MIN TEMP:  73; 6HR MAX TEMP:  88;

LANSING        CLOUDY    78  66  66 S15G24    30.01S
6HR MIN TEMP:  71; 6HR MAX TEMP:  80; 6HR PCP: TRACE;

LAPEER         FAIR      84  66  53 S7        30.01F
6HR MIN TEMP:  75; 6HR MAX TEMP:  88; 6HR PCP:  0.10;

MASON          CLOUDY    78  64  60 S8G16     30.02F
MONROE         PTSUNNY   87  67  50 S17G23    30.02F
6HR MIN TEMP:  71; 6HR MAX TEMP:  87;

MT. CLEMENS    MOSUNNY   81  70  68 SE16      30.02F
6HR MIN TEMP:  70; 6HR MAX TEMP:  81;

PONTIAC        PTSUNNY   88  63  43 S13       30.01F
6HR MIN TEMP:  73; 6HR MAX TEMP:  88;

PORT HOPE        N/A     86  67  52 S8        29.98F
6HR MIN TEMP:  65; 6HR MAX TEMP:  86;

PORT HURON     MOSUNNY   84  68  58 S13       30.03F
TRI CITIES     MOSUNNY   85  66  53 S16G22    29.99F
6HR MIN TEMP:  72; 6HR MAX TEMP:  85; 6HR PCP:  0.07;

MIDLAND        FAIR      82  65  56 S9G18     29.98S
6HR MIN TEMP:  72; 6HR MAX TEMP:  83;

TROY           MOSUNNY   89  64  44 S10G16    30.03F HX  90
SAGINAW HB     CLOUDY    82  61  47 S17G23    29.99S
$$
MIZ043>046-050>051-056>058-064>065-071>073-077>080-281900-
SOUTHWEST LOWER MICHIGAN

CITY           SKY/WX    TMP DP  RH WIND       PRES   REMARKS
BENTON HARBOR  CLOUDY    79  64  60 S20G30    29.96F
6HR MIN TEMP:  74; 6HR MAX TEMP:  81;

BIG RAPIDS     CLOUDY    77  66  68 S13G23    29.96S
6HR MIN TEMP:  68; 6HR MAX TEMP:  77;

COLDWATER      PTSUNNY   82  61  49 S8G23     30.01F
6HR MIN TEMP:  72; 6HR MAX TEMP:  82;

FREMONT        PTSUNNY   78  65  64 SW16G26   29.95S
HOLLAND        MOSUNNY   83  67  58 S20G28    29.96F
6HR MIN TEMP:  70; 6HR MAX TEMP:  83;

GRAND RAPIDS   CLOUDY    83  67  58 S14G21    29.98F
6HR MIN TEMP:  71; 6HR MAX TEMP:  84; 6HR PCP: TRACE;

IONIA          FAIR      80  62  54 S14G26    29.99S
6HR MIN TEMP:  69; 6HR MAX TEMP:  80;

KALAMAZOO      CLOUDY    80  64  58 S16       29.99F
6HR MIN TEMP:  73; 6HR MAX TEMP:  82;

LUDINGTON      CLOUDY    77  66  69 S22G28    29.93R
6HR MIN TEMP:  68; 6HR MAX TEMP:  77;

MARSHALL       CLOUDY    81  66  61 S12       30.00F
6HR MIN TEMP:  71; 6HR MAX TEMP:  81;

MOUNT PLEASANT CLOUDY    79  67  65 S10       29.97F
6HR MIN TEMP:  71; 6HR MAX TEMP:  79;

MUSKEGON       CLOUDY    79  64  60 S21G31    29.95S
6HR MIN TEMP:  72; 6HR MAX TEMP:  80; 6HR PCP: TRACE;

SOUTH HAVEN    CLOUDY    81  64  56 S12G22    29.96F
$$
MIZ016>042-281900-
NORTHERN LOWER MICHIGAN

CITY           SKY/WX    TMP DP  RH WIND       PRES   REMARKS
ALPENA         CLOUDY    84  63  49 S17G26    29.94F
6HR MIN TEMP:  64; 6HR MAX TEMP:  85;

BEAVER ISLAND  CLOUDY    75  65  71 SW9       29.90S
6HR MIN TEMP:  66; 6HR MAX TEMP:  78;

BELLAIRE       CLOUDY    80  64  59 S6G17     29.91S
6HR MIN TEMP:  72; 6HR MAX TEMP:  80;

CADILLAC       CLOUDY    78  65  63 S14G20    29.95S
CHARLEVOIX     CLOUDY    78  64  63 S14G20    29.93S
FRANKFORT      CLOUDY    74  65  73 S15G25    29.90F
GAYLORD        PTSUNNY   79  63  57 SW16G26   29.95S
6HR MIN TEMP:  69; 6HR MAX TEMP:  79;

GRAYLING       PTSUNNY   80  64  58 S10G24    29.96F
6HR MIN TEMP:  69; 6HR MAX TEMP:  80;

HARBOR SPRINGS CLOUDY    78  64  61 SW13G22   29.91R
HOUGHTON LAKE  PTSUNNY   78  62  57 S16       29.97S
6HR MIN TEMP:  68; 6HR MAX TEMP:  79;

MANISTEE       CLOUDY    79  64  61 S9G21     29.92S
OSCODA         MOSUNNY   84  62  47 SW21G31   29.96F
6HR MIN TEMP:  67; 6HR MAX TEMP:  85; 6HR PCP:  0.02;

PELLSTON       CLOUDY    80  63  55 S15G24    29.91S
6HR MIN TEMP:  68; 6HR MAX TEMP:  83;

ROGERS CITY    CLOUDY    80  64  56 S13G24    29.93F
TRAVERSE CITY  CLOUDY    80  64  58 S9G20     29.89S
6HR MIN TEMP:  71; 6HR MAX TEMP:  80;

$$
MIZ007>008-015-281900-
EASTERN UPPER MICHIGAN

CITY           SKY/WX    TMP DP  RH WIND       PRES   REMARKS
KINROSS          N/A     75  66  73 SE9G20    29.91F
6HR MIN TEMP:  61; 6HR MAX TEMP:  77;

MACKINAC ISLAN CLOUDY    63  61  93 E7        29.90F
6HR MIN TEMP:  57; 6HR MAX TEMP:  67;

NEWBERRY       CLOUDY    70  66  88 S8        29.90R
6HR MIN TEMP:  65; 6HR MAX TEMP:  74; 6HR PCP:  0.02;

S. S. MARIE    CLOUDY    73  64  73 SE8       29.91F
6HR MIN TEMP:  61; 6HR MAX TEMP:  73; 6HR PCP:  0.02;

MUNISING         N/A     71  65  81 S12       29.82F
6HR MIN TEMP:  62; 6HR MAX TEMP:  72; 6HR PCP:  0.34;

$$
MIZ004>006-011>014-085-281900-
CENTRAL UPPER MICHIGAN

CITY           SKY/WX    TMP DP  RH WIND       PRES   REMARKS
MANISTIQUE     CLOUDY    62  59  89 S10G18    29.88S
6HR MIN TEMP:  55; 6HR MAX TEMP:  65;

ESCANABA       MOSUNNY   64  57  77 S12       29.83F
                                      6HR PCP:  0.13;

MENOMINEE      CLOUDY    70  64  83 S10       29.82F
6HR MIN TEMP:  61; 6HR MAX TEMP:  72; 6HR PCP:  9.94;

SAWYER-GWINN   CLOUDY    68  64  88 S13       29.83F
$$
MIZ001>003-009>011-084-281900-
WESTERN UPPER MICHIGAN

CITY           SKY/WX    TMP DP  RH WIND       PRES   REMARKS
IRON MOUNTAIN  CLOUDY    71  66  84 S9        29.78F
6HR MIN TEMP:  62; 6HR MAX TEMP:  72; 6HR PCP:  0.01;

HOUGHTON       CLOUDY    65  62  90 SE9       29.80R
6HR MIN TEMP:  54; 6HR MAX TEMP:  69; 6HR PCP:  0.06;

COPPER HARBOR    N/A     64  61  90 SW13G21   29.79R
6HR MIN TEMP:  52; 6HR MAX TEMP:  66; 6HR PCP:  0.01;

IRONWOOD       CLOUDY    66  66 100 N3        29.74F
6HR MIN TEMP:  61; 6HR MAX TEMP:  66;

$$

ABBREVIATIONS USED IN REMARKS
   TC - TEMPERATURE IN CELSIUS
  WCI - WIND CHILL INDEX
   HX - HEAT INDEX
  VSB - VISIBILITY





USA.gov is the U.S. government's official web portal to all federal, state and local government web resources and services.